Torna al catalogo

FENGYUN 1C DEB

AttivoPO
NORAD 33687·DEBRIS·🇨🇳 China

Lanciato May 10, 1999 da Taiyuan Satellite Launch Center

Loading…

Prossimi Passaggi (prossime 24 ore)

TLE

ObsoletoSource: Space-Track

Epoca: Aug 30, 2026, 23:17 UTC

1 33687U 99025DFY 26242.97051066  .00038431  00000-0  97508-3 0  9993
2 33687  98.9672 307.0287 0081074 168.8693 191.4365 15.36201122754972

Traccia FENGYUN 1C DEB in tempo reale con AllMySat

Download on the App Store